Regional Weather Roundup
Issued by NWS Wakefield, VA

Home | Current Version | Previous Version | Text Only | Print | Product List | Glossary Off
Versions: 1 2 3 4 5 6 7 8 9 10 11 12 13 14 15 16 17 18 19 20 21 22 23 24 25 26 27 28 29 30 31 32 33 34 35 36 37 38 39 40 41 42 43 44 45 46 47 48 49 50

000
ASUS41 KAKQ 280210
RWRAKQ

REGIONAL WEATHER ROUNDUP
NATIONAL WEATHER SERVICE WAKEFIELD VA
900 PM EST SAT DEC 27 2014

Note: "fair" indicates few or no clouds below 12,000 feet with no
significant weather and/or obstructions to visibility. * = Denotes
station may not report precipitation (e.g., rain,snow,etc.),
thunder or fog.

VAZ042-051-052>054-056-280300-
NORTHERN VIRGINIA

CITY           SKY/WX    TMP DP  RH WIND       PRES   REMARKS
WASH NATIONAL  MOCLDY    49  34  56 S7        30.16F
DULLES         CLOUDY    40  33  76 CALM      30.14F
FORT BELVOIR   PTCLDY    39  34  83 CALM      30.16F
QUANTICO       PTCLDY    42  36  79 SW5       30.17F
FREDERICKSBRG* PTCLDY    40  37  89 CALM      30.15F
STAFFORD*      PTCLDY    37  32  82 CALM      30.20F
WARRENTON      PTCLDY    35  35 100 CALM      30.14F
CULPEPER*      PTCLDY    37  34  87 CALM      30.15F
MANASSAS*      PTCLDY    37  36  93 CALM      30.15F
LEESBURG*      PTCLDY    45  34  65 CALM      30.15F
WINCHESTER     PTCLDY    45  28  53 CALM      30.10F
FRONT ROYAL*   MOCLDY    43  32  65 CALM      30.10F
LURAY*         PTCLDY    45  34  65 CALM      30.11F
$$

VAZ048-049-060>072-079>083-280300-
CENTRAL AND SOUTH CENTRAL VIRGINIA

CITY           SKY/WX    TMP DP  RH WIND       PRES   REMARKS
RICHMOND       CLOUDY    51  38  60 S7        30.18F
CHESTERFIELD*  MOCLDY    52  30  43 S6        30.19F
PETERSBURG*    MOCLDY    49  39  68 S3        30.20F
HANOVER        MOCLDY    46  37  71 S3        30.19F
TAPPAHANNOCK*  MOCLDY    50  35  55 S3        30.18F
QUINTON*       MOCLDY    51  38  61 S3        30.19S
CHARLOTTSVILLE PTCLDY    48  34  58 W3        30.16S
GORDONSVILLE*  PTCLDY    40  34  79 SW3       30.15F
ORANGE*        PTCLDY    37  36  93 CALM      30.16F
LOUISA*        MOCLDY    52  39  62 S5        30.15S
BUMPASS*       PTCLDY    48  37  66 CALM      30.16F
FARMVILLE*     MOCLDY    54  39  57 SW5       30.17S
CREWE*         PTCLDY    53  36  53 S5        30.18F
FORT PICKETT*  PTCLDY    49  39  68 S7        30.19F
CHASE CITY*    PTCLDY    53  42  65 S3        30.20F
CLARKSVILLE*   PTCLDY    50  39  66 CALM      30.20S
SOUTH HILL*    PTCLDY    43  39  87 S3        30.27S
LAWRENCEVILLE* PTCLDY    47  40  75 CALM      30.20F
EMPORIA*       PTCLDY    43  37  81 CALM      30.24R
$$

VAZ088>098-280300-
SOUTHEAST VIRGINIA

CITY           SKY/WX    TMP DP  RH WIND       PRES   REMARKS
NORFOLK        FAIR      50  38  63 S8        30.21F
VIRGINIA BEACH PTCLDY    50  40  68 S7        30.21F
NORFOLK NAVAL  PTCLDY    55  38  52 S8        30.23S
WEST POINT*    CLOUDY    52  37  57 S6        30.21S
SALUDA*        FAIR      46  37  71 CALM      30.19S
NEWPORT NEWS   MOCLDY    53  39  59 S8        30.21S
LANGLEY AFB    CLOUDY    50  39  66 SW3       30.21F
FORT EUSTIS    CLOUDY    50  49  97 S5        30.19F
WILLIAMSBURG*  MOCLDY    52  43  71 S5        30.21S
HR EXEC AP*    FAIR      48  37  66 S6        30.24F
FRANKLIN*      PTCLDY    45  37  76 S3        30.22F
WAKEFIELD      PTCLDY    49  39  68 S3        30.21S
$$

VAZ020-022-025-037-045-280300-
WEST CENTRAL AND SOUTHWEST VIRGINIA

CITY           SKY/WX    TMP DP  RH WIND       PRES   REMARKS
STAUNTON*      PTCLDY    45  26  49 SW3       30.16S
WAYNESBORO*    PTCLDY    48  23  37 CALM      30.15S
HOT SPRINGS VA CLOUDY    52  15  22 SW9       30.15F
LYNCHBURG      CLOUDY    51  37  58 S6        30.20S
DANVILLE       CLOUDY    53  38  56 S3        30.20S
SOUTH BOSTON*  PTCLDY    52  38  60 CALM      30.20S
MARTINSVILLE   CLOUDY    49  40  72 CALM      30.22S
ROANOKE        CLOUDY    54  33  45 E7        30.18F
BLACKSBURG     CLOUDY    50  30  45 S5        30.20F
DUBLIN*        CLOUDY    53  36  53 SW5       30.19S
MARION*        CLOUDY    49  30  48 CALM      30.19F
HILLSVILLE*    CLOUDY    49  34  56 S6        30.18F
RICHLANDS*     CLOUDY    53  10  17 CALM      30.14F
WISE*          CLOUDY    50  27  40 SW8       30.16S
ABINGDON*      CLOUDY    50  36  59 CALM      30.15F
$$

MDZ021>025-VAZ099-100-280300-
SOUTHERN MARYLAND AND THE DELMARVA PENINSULA

CITY           SKY/WX    TMP DP  RH WIND       PRES   REMARKS
PATUXENT RIVER MOCLDY    40  36  86 S5        30.17F
BAY BRIDGE APT   N/A     43  36  75 CALM      30.16S
LEONARDTOWN    MOCLDY    45  36  70 CALM      30.18F
DOVER          PTCLDY    41  39  93 S6        30.14F
GEORGETOWN     PTCLDY    47  39  74 S8        30.17F
EASTON         NOT AVBL
CAMBRIDGE      PTCLDY    46  39  76 S6        30.16F
SALISBURY      PTCLDY    45  37  73 S5        30.18F
OCEAN CITY     CLEAR     45  42  89 SW5       30.19F
WALLOPS ISLAND PTCLDY    45  42  89 SW12      30.20F
ACCOMACK*      PTCLDY    46  39  76 S7        30.20S
$$

NCZ012>017-030>032-280300-
NORTH CENTRAL AND EASTERN NORTH CAROLINA

CITY           SKY/WX    TMP DP  RH WIND       PRES   REMARKS
ROANOKE RAPIDS PTCLDY    43  37  81 CALM      30.22F
RALEIGH        CLOUDY    54  38  54 SW5       30.22F
ELIZABETH CITY CLEAR     51  41  68 S8        30.25S
AHOSKIE*       PTCLDY    41  38  90 CALM      30.24S
EDENTON*         N/A     46  41  83 S7        30.25S
CURRITUCK*     CLEAR     46  39  78 CALM      30.25S
KILL DEVIL HLS CLEAR     48  43  80 S3        30.24S
MANTEO         CLEAR     48  41  76 SW5       30.26S
CAPE HATTERAS  PTCLDY    56  52  86 SW7       30.25F
TARBORO*       CLOUDY    45  42  91 CALM      30.24F
GOLDSBORO      CLOUDY    47  46  97 CALM      30.22F
WASHINGTON     MOCLDY    47  42  80 CALM      30.25F
GREENVILLE     CLOUDY    45  41  87 CALM      30.25F
NEW BERN       MOCLDY    49  43  80 CALM      30.27R
WILMINGTON     MOCLDY    48  45  89 CALM      30.25S
$$

VAZ048-280300-
ELSEWHERE

CITY           SKY/WX    TMP DP  RH WIND       PRES   REMARKS
HARRISBURG PA  MOCLDY    48  32  53 S6        30.11F
BALTIMORE      MOCLDY    41  33  73 CALM      30.15S
ANNAPOLIS      PTCLDY    44  37  76 SE5       30.15S
ANDREWS AFB    PTCLDY    44  36  73 S6        30.15F
PHILADELPHIA   MOCLDY    45  34  65 SW5       30.16F
HENDERSON NC   MOCLDY    51  37  60 S6        30.22S
GREENSBORO     MOCLDY    51  39  63 S6        30.19F
ROCKY MOUNT    CLOUDY    48  42  80 CALM      30.23F
$$

VAZ100-280300-
MARINE

STATION/POSITION TIME  TEMP    WIND        PRES    WAVE   SWELL
                       AIR SEA DIR/SP/G            HT/PER HT/PER
                 (UTC) (F)     (DEG/KT/KT) (MB)    (FT/S) (FT/S)
CAPE MAY NJ      0200   47 46  170/  7/ 10 1021.3S
LEWES DE         0200   47 44  200/  6/  8 1021.5F
15NM E FENWICK I 0200   47 45              1022.2F   3/14
OCEAN-CITY-INLET 0200   45 46  210/  5/  6 1022.2F
WACHAPREAGUE VA  0200   46 49  220/  6/  8 1022.8F
THOMAS POINT MD  0200   44 43  210/  6/  6 1022.4R
GOOSES REEF MD   0200   44     VRB 12/ 14  1020.5S
COVE POINT MD    0200   44     190/ 10/ 10 1021.6R
SOLOMONS ISLAND  0200      44                N/A
BISHOPS HEAD MD  0200   46 45  170/  8/ 10 1021.5F
PINEY POINT MD   0200          160/  4/  5   N/A
POTOMAC MD       0200   45     200/  4/  4 1021.2F
CAMBRIDGE MD     0200   47 43  180/  6/ 10 1021.3F
LEWISETTA VA     0200   46 45     CALM     1021.6S
RAPPAHANNOCK LGT 0200          170/  9/ 10 1023.0S
STINGRAY PT      0200   46     210/  4/  6 1022.9F
YORK RVR RNG VA  0200   50     190/ 10/ 10 1022.1S
YORKTOWN VA      0200   53 46  210/  3/  5 1022.6S
JAMESTOWN VA     0200   49     150/  2/  2   N/A
DOMINION TERM VA 0200   51     190/  7/  9 1023.1F
KIPTOPEKE VA     0200      51  180/  9/ 10   N/A
CHES BAY BRIDGE  0200   51 46  170/ 10/ 11 1022.8R
CAPE HENRY VA    0200   50     190/  6/ 10 1021.9F
CHESAPEAKE LGHT  0100   50     190/ 17/ 17 1024.3R
WILLOUBY STN VA  0200   52     190/ 13/ 14 1023.4F
S CRANEY ISL VA  0200          180/  6/  7 1023.0F
CAPE HENRY BUOY  0200      48                N/A     2/15   2/15
1ST LANDING BUOY 0200   49     190/  6/  8 1023.0R
CAPE CHARLES BUO 0200      48                N/A     2/15   2/15
64NM E OF VA BCH 0200   53 53  200/  6/  8 1023.4R   4/15   3/15
DUCK PIER NC     0200   51 49  200/ 10/ 11 1023.3S
44100 DUCK FRF   0200      51                N/A     4/14   3/14
44056 DUCK FRF   0200      48                N/A     3/14   3/14
OREGON INLET NC  0200   51 53  200/  5/  5 1024.4S
HATTERAS NC      0200   55 55  170/  3/  5 1024.4S
DIAMOND SHLS NC  0200   65                 1024.3F   4/15
CAPE LOOKOUT NC  0100   56     170/  4/  5 1024.7S
$$



USA.gov is the U.S. government's official web portal to all federal, state and local government web resources and services.